Theta_e
290 290 290 290 291 291 291 292 292 293 293 294 293 293 293 293 293 294 294 294 295 294 294 294 295 295 294 294 294 293 293 293 293 292 292 291 291 291 290 290 289 289 289 289 289 289 289 289 289 289 290 289 290 290 290 290 290 290 290 290 290 291 290 290 288 286 283 287 286 285 285 285 284 285 284 284 283 283 285 284 284 283 283 282 283
289 289 289 289 289 289 289 291 291 291 291 292 291 292 292 292 293 293 292 293 293 293 293 294 294 294 293 293 293 293 293 293 292 292 291 290 290 291 290 289 289 288 288 288 288 289 289 288 288 288 289 289 289 289 289 289 289 289 289 289 289 289 290 289 288 286 281 283 284 284 284 285 283 285 283 283 282 282 281 282 282 282 282 282 283
289 289 288 288 288 288 289 289 289 289 289 289 289 290 291 291 292 291 291 292 293 292 292 292 293 293 292 293 293 292 292 292 292 292 291 290 290 290 290 289 288 288 287 287 288 288 288 287 287 288 288 288 288 288 288 288 288 288 288 288 288 288 289 289 288 286 282 281 283 282 282 283 282 283 284 284 283 282 281 281 281 282 283 283 282
288 289 288 288 288 288 287 288 287 288 287 288 288 290 290 290 291 290 291 291 291 292 292 292 292 291 291 291 291 291 292 292 291 291 291 290 289 289 289 289 288 288 287 287 287 287 287 287 287 287 287 286 287 287 287 288 287 287 287 287 287 287 287 287 287 287 284 281 281 281 282 282 282 283 283 283 282 282 281 281 282 282 282 283 282
288 288 288 288 287 287 286 287 286 287 287 287 287 288 289 289 290 289 290 290 290 290 291 291 291 291 290 290 290 290 290 291 291 290 290 290 289 289 289 288 288 288 288 287 287 287 287 286 286 287 286 285 286 286 286 286 286 286 286 286 286 286 286 286 286 285 283 282 281 281 282 281 282 282 282 281 281 281 281 280 281 281 281 282 283
287 288 288 287 287 287 287 286 286 286 287 287 287 288 288 288 288 289 289 288 289 290 290 290 290 289 289 289 289 289 290 290 289 289 290 289 289 289 288 288 288 287 287 287 287 287 287 286 286 286 286 285 285 285 285 285 285 285 285 285 285 285 284 284 284 284 284 283 281 279 280 279 279 280 281 281 279 278 279 280 280 281 281 280 281
287 287 287 287 286 286 286 286 286 287 287 287 287 287 287 287 287 287 288 288 288 288 289 289 289 289 289 289 289 289 289 289 289 289 289 289 289 288 288 287 287 287 287 286 286 286 287 286 286 286 285 285 285 285 285 285 285 284 285 285 285 284 284 283 283 282 282 282 281 280 279 280 279 278 280 280 280 279 278 278 278 280 280 280 280
287 287 287 287 286 287 287 286 286 287 286 287 287 287 287 287 286 287 287 287 287 288 288 288 289 289 289 289 289 289 288 288 288 288 288 288 288 287 287 287 286 286 286 286 286 285 286 286 286 286 286 286 285 285 285 284 284 284 284 284 284 283 283 282 282 282 281 282 280 279 279 278 278 279 280 279 278 278 279 279 277 278 279 280 280
286 286 286 286 286 287 287 287 287 287 286 286 286 286 286 286 286 286 286 286 287 287 287 288 288 288 288 289 289 289 288 288 288 288 287 287 287 287 287 287 286 286 286 286 286 286 286 286 286 286 286 286 286 286 286 286 284 284 284 284 283 283 283 283 282 282 281 281 280 280 278 277 277 277 276 276 276 276 279 280 279 280 280 280 281
286 286 285 285 286 286 286 286 287 286 286 285 285 285 285 285 285 285 285 286 286 286 286 287 287 287 287 288 288 289 289 289 288 288 289 287 287 287 287 286 286 286 286 285 286 285 285 286 286 286 285 285 285 286 287 287 287 285 284 284 283 283 282 282 282 282 281 281 280 279 278 277 277 277 277 277 278 279 279 279 278 280 280 280 280
285 285 285 285 285 285 285 285 286 285 286 285 285 285 285 285 284 284 284 285 285 286 285 285 285 286 286 286 287 288 288 288 288 290 290 291 289 287 286 286 286 286 286 285 285 285 285 285 285 285 285 285 285 286 287 287 287 287 287 286 286 283 282 281 281 282 281 281 281 280 279 278 278 278 278 278 278 278 278 278 278 279 278 277 276
285 285 285 285 285 285 285 285 284 285 285 285 285 285 284 284 284 284 284 284 285 285 285 285 285 285 286 286 286 287 287 288 290 290 290 290 290 288 287 286 286 285 285 285 285 285 285 285 285 286 285 285 285 285 286 287 287 287 287 287 287 287 287 284 282 281 281 281 280 280 280 279 279 278 278 279 278 279 280 279 278 278 278 277 278
285 285 284 284 284 284 284 284 284 284 284 284 284 284 284 284 284 283 283 284 284 284 284 285 285 285 284 285 285 285 286 288 289 290 290 290 290 289 287 287 286 286 285 285 285 285 285 285 285 285 286 285 285 284 284 284 286 287 287 287 287 287 287 288 287 284 283 282 281 281 281 281 279 279 279 279 281 279 279 279 279 279 279 278 278
284 284 284 284 284 284 284 284 283 283 284 284 284 283 283 282 283 284 284 284 284 284 284 284 284 284 284 284 284 284 285 287 288 289 289 289 289 289 287 287 287 286 286 285 285 285 285 285 285 285 285 285 284 284 284 284 283 284 284 284 284 285 286 287 287 286 285 283 282 281 282 282 280 281 281 282 280 279 279 278 279 278 278 278 279
283 283 283 284 284 284 283 283 283 283 283 283 283 282 282 282 282 282 283 283 283 283 283 283 283 283 283 283 284 284 284 287 287 288 288 289 289 289 287 287 287 286 286 286 286 285 285 285 285 284 285 284 284 284 284 283 283 283 283 282 282 282 283 283 284 284 284 283 283 283 283 283 282 282 282 282 281 281 281 280 280 279 279 279 279
282 282 282 283 283 283 283 282 282 282 282 282 282 281 281 281 281 282 282 282 283 283 283 283 283 282 282 282 282 282 283 286 287 287 287 288 288 287 286 286 286 286 286 286 286 286 286 285 285 284 284 284 285 287 286 283 282 281 281 282 282 282 282 284 285 285 284 283 282 282 283 283 285 282 282 282 282 282 281 280 279 278 277 276 275
281 281 282 282 282 282 282 282 282 281 282 281 281 280 280 280 280 281 280 280 280 281 281 282 282 282 282 282 282 282 282 284 286 286 287 287 287 285 285 285 286 286 286 286 286 286 286 285 285 284 284 283 285 287 288 285 282 281 280 280 281 281 281 282 285 286 286 285 284 285 285 286 286 286 286 286 283 282 279 277 276 277 275 274 274
280 280 280 280 281 281 281 281 280 280 280 280 280 280 280 280 280 280 279 279 279 279 280 281 281 282 282 281 282 281 281 283 285 285 286 286 286 284 284 284 284 285 285 286 286 286 286 285 285 284 284 283 285 286 287 285 281 280 280 279 279 279 280 281 281 283 286 284 284 284 285 286 286 286 286 286 285 283 278 276 276 276 274 275 273
278 278 278 279 279 280 280 280 279 279 278 278 279 278 278 278 279 279 279 279 279 279 280 280 281 281 281 281 282 281 281 282 284 285 285 286 285 284 284 283 283 284 284 285 286 286 286 285 285 285 284 284 286 286 286 285 282 281 280 279 278 278 279 280 279 280 280 280 280 281 282 284 283 283 283 285 284 283 280 278 278 275 274 274 274
277 277 277 277 277 277 277 277 277 276 276 276 277 277 278 278 278 278 278 278 278 278 278 279 279 279 280 280 280 280 280 280 282 284 285 285 286 284 284 283 282 282 283 284 284 285 285 285 286 287 288 287 286 286 286 286 282 281 280 279 278 278 281 280 279 280 279 279 279 280 279 281 281 282 282 282 282 281 280 279 278 277 275 275 274
275 275 275 275 275 275 275 274 273 274 274 274 275 275 275 275 276 276 276 276 276 276 276 276 277 277 278 278 278 278 279 279 281 284 284 285 285 285 282 282 282 283 283 283 283 283 284 284 284 286 287 287 287 287 286 286 285 282 281 280 280 281 282 279 279 281 279 279 279 279 279 280 280 280 280 281 280 280 279 279 278 278 276 275 274
273 272 272 271 271 270 270 270 271 271 271 271 271 272 273 273 274 274 274 274 274 274 274 275 275 275 276 276 276 277 279 281 280 282 284 284 285 285 283 282 283 282 282 282 283 283 284 284 284 284 286 286 287 287 286 286 286 283 282 284 284 284 281 280 279 279 279 278 278 278 278 278 278 279 279 279 279 279 279 278 278 277 277 277 275
269 269 268 267 266 266 266 267 267 267 267 268 268 268 270 270 271 272 272 272 272 272 272 273 273 273 273 274 275 276 278 279 282 281 283 284 285 285 285 284 285 284 282 281 282 283 284 284 284 285 285 285 286 286 286 286 285 284 285 285 284 284 283 280 279 279 278 278 277 276 277 277 277 277 278 278 278 278 278 277 276 276 275 275 275
266 265 264 264 263 263 264 264 264 264 265 265 265 265 265 267 268 269 269 270 270 270 271 272 272 272 271 272 274 275 277 278 280 282 282 283 284 285 285 286 286 283 283 282 283 283 284 284 284 285 285 285 285 286 286 285 284 285 286 286 285 284 281 279 278 278 278 277 276 276 276 277 277 277 277 277 276 276 277 275 274 274 273 273 274
263 262 261 261 261 262 262 262 262 262 262 263 262 263 264 265 265 266 267 268 268 269 269 270 270 270 271 271 272 274 275 276 277 280 282 283 283 284 285 285 285 285 283 283 283 283 285 286 286 285 284 284 285 285 285 285 285 285 285 285 284 282 281 279 278 277 277 276 276 276 276 277 276 277 276 275 274 274 273 273 273 273 273 273 272
261 260 260 260 260 261 260 260 261 261 262 262 262 263 263 264 264 264 265 266 266 267 267 268 269 269 269 270 270 271 273 273 274 276 280 281 282 283 284 284 284 284 284 283 284 285 285 285 286 286 285 284 283 282 282 282 284 284 284 284 283 282 280 279 278 277 276 276 276 275 275 276 276 276 275 274 273 272 272 270 270 270 270 269 268
260 260 259 260 260 260 260 260 260 260 261 261 262 262 263 263 263 263 264 264 264 265 266 266 267 267 267 268 269 270 271 272 274 276 277 278 279 280 281 281 283 284 282 282 283 283 284 284 284 285 284 284 283 283 283 283 282 282 282 283 282 282 280 279 277 277 276 276 276 276 276 275 275 274 273 272 271 271 272 270 269 268 268 268 267
259 259 259 259 259 259 259 260 260 260 260 261 261 261 261 262 261 261 262 262 262 263 264 265 266 266 267 268 269 270 270 272 273 275 277 278 279 280 279 279 279 279 279 280 280 281 282 283 284 283 282 281 281 281 281 281 281 281 281 281 281 281 280 280 279 278 277 277 277 276 274 274 272 272 272 271 271 270 270 269 268 267 267 267 265
259 259 259 259 259 259 259 259 259 260 260 260 261 261 261 261 261 261 262 263 263 262 262 263 265 265 266 266 266 266 267 269 271 276 277 280 280 279 278 278 278 278 280 281 280 280 280 281 281 281 280 279 278 278 279 279 279 279 279 280 281 280 279 278 276 276 276 276 275 274 272 272 271 271 270 270 269 268 269 268 268 267 267 267 265
258 258 258 258 258 259 259 259 259 259 259 259 259 260 263 266 265 262 262 266 269 270 269 264 265 265 265 266 268 267 267 269 274 276 277 279 280 281 281 281 282 280 281 282 281 279 278 278 279 279 278 278 277 277 277 278 278 278 278 280 280 279 277 276 276 276 276 275 275 273 271 270 269 269 269 268 267 267 268 268 266 267 266 265 265
258 258 258 258 258 258 258 258 259 259 259 259 259 259 259 261 266 268 268 268 269 270 270 271 272 272 268 266 268 272 273 274 274 275 276 277 278 279 280 280 280 281 282 280 278 278 277 277 278 278 278 277 276 277 277 277 277 277 277 278 279 278 276 275 276 275 275 274 272 271 270 269 269 269 268 267 266 266 266 266 266 266 265 265 264
257 257 258 258 258 258 258 258 258 258 258 259 259 259 259 258 259 265 267 268 269 269 270 270 271 271 271 270 268 267 270 273 274 274 275 275 276 277 278 278 279 280 281 282 279 277 277 277 277 277 277 277 276 277 277 277 277 277 277 277 277 277 275 275 275 275 274 272 270 269 269 269 269 268 267 267 266 265 265 265 265 265 265 266 265
257 257 257 257 258 258 258 258 258 258 258 258 258 259 258 258 258 258 261 266 268 268 269 269 270 270 270 271 272 271 271 272 273 274 274 275 276 276 277 278 279 280 280 278 278 278 277 277 277 277 277 276 277 277 277 277 277 277 277 277 276 275 275 275 276 274 273 271 270 269 269 269 268 267 266 266 265 264 265 264 265 265 265 265 265
257 257 257 257 257 257 257 258 258 258 258 259 259 259 259 259 258 259 258 259 260 263 267 268 268 269 269 270 270 271 271 272 273 274 274 275 276 276 276 275 278 280 279 276 278 278 278 277 277 277 277 277 277 277 277 277 277 277 277 276 275 274 274 275 274 272 271 271 270 269 269 268 267 266 266 265 265 265 264 264 264 264 264 264 264
258 258 258 258 258 258 258 258 258 258 259 259 259 259 259 259 259 259 258 258 258 258 259 261 265 268 265 267 269 270 271 271 272 272 273 274 275 276 277 273 272 274 276 277 278 278 278 277 277 277 277 276 276 277 276 277 277 277 276 275 274 273 272 272 272 271 270 270 269 268 268 267 266 266 265 265 265 264 264 264 264 265 264 264 265
258 258 258 258 258 258 258 258 259 259 259 259 259 259 259 259 259 259 259 260 259 259 260 261 262 265 268 269 270 270 271 271 272 272 273 274 275 275 270 271 272 272 274 276 278 279 279 278 277 277 277 277 277 277 277 277 276 276 275 273 272 271 270 270 270 270 269 269 268 268 268 266 266 265 265 265 265 265 265 264 265 265 265 265 265
258 258 258 258 258 258 258 259 259 259 260 260 260 260 260 260 260 260 260 260 260 260 260 261 262 262 265 265 266 269 271 271 272 272 273 274 275 273 271 271 272 273 273 276 278 279 278 279 278 277 277 277 277 277 277 276 276 274 274 273 272 270 269 269 269 268 268 267 267 267 266 265 265 265 265 264 264 265 265 265 265 265 265 265 266
258 258 258 258 259 259 259 259 260 260 260 260 260 260 260 260 260 260 260 260 260 260 260 260 262 261 261 262 265 265 266 269 271 271 271 272 272 272 271 271 273 274 274 276 278 278 278 278 278 277 277 277 277 277 276 276 274 273 272 271 270 269 270 270 269 268 267 267 266 266 265 265 265 265 265 264 264 264 264 264 264 264 265 265 265
258 259 259 260 261 259 259 260 260 260 260 260 260 260 260 260 260 260 260 260 260 260 260 260 261 261 262 263 264 266 267 265 265 266 267 269 271 273 273 273 274 274 276 277 278 278 278 277 277 277 277 277 277 276 276 274 272 271 271 269 268 268 269 267 267 267 266 266 265 265 265 265 265 265 265 264 264 264 264 264 264 264 264 264 264
258 258 258 259 259 259 260 260 260 260 260 260 260 260 260 260 260 260 260 260 260 260 260 260 261 262 263 264 264 265 265 266 267 268 269 270 270 272 273 273 274 275 275 277 278 278 278 278 278 277 277 277 276 276 275 273 271 271 270 268 267 267 267 267 266 266 265 265 265 264 264 264 264 265 265 265 264 264 264 264 264 265 265 264 265
257 257 258 259 259 259 260 260 260 260 260 260 261 260 260 260 260 261 260 260 260 260 260 260 261 262 263 264 268 269 266 266 267 268 269 270 271 272 273 274 274 275 276 277 278 279 279 278 278 278 276 275 275 274 272 271 270 269 269 268 267 267 267 266 266 266 265 265 264 264 264 264 264 264 263 264 266 265 265 265 265 265 265 265 265
257 257 258 258 259 260 260 260 260 261 261 261 261 261 261 261 261 260 260 260 260 260 260 261 261 263 265 268 269 270 267 267 267 268 270 271 272 272 273 274 275 275 276 278 279 278 278 276 276 275 274 273 273 271 271 270 269 269 268 267 267 266 265 265 265 265 265 264 264 264 263 263 264 264 265 266 264 264 264 264 264 265 265 265 265
257 258 258 259 259 259 259 260 261 261 261 262 261 262 262 261 261 261 260 260 260 260 260 260 261 262 263 266 266 268 266 266 267 268 270 272 272 273 273 274 275 275 277 278 278 276 275 273 273 273 273 272 271 270 270 269 269 268 268 267 266 265 265 265 265 264 265 264 264 263 263 264 264 264 264 264 264 264 264 264 265 265 265 265 265
257 258 258 259 259 259 260 260 260 261 261 262 262 262 262 261 261 261 261 260 260 261 261 261 262 262 263 264 265 266 266 266 267 269 271 271 271 271 272 273 272 272 272 273 273 273 273 272 272 271 271 270 270 271 270 270 269 268 268 267 266 265 265 264 264 264 264 263 263 263 263 263 264 264 264 264 264 264 264 264 264 264 264 264 264
257 257 258 258 258 259 259 260 260 261 261 261 262 262 262 261 261 261 261 261 261 261 261 262 262 263 263 264 265 265 266 267 269 270 269 268 267 268 269 270 270 270 271 270 271 271 271 270 270 269 269 270 270 269 269 268 268 269 268 267 266 264 265 264 265 265 264 263 263 263 263 263 264 264 264 264 264 264 264 264 264 264 264 264 264
257 257 257 258 258 258 259 259 260 260 260 260 261 261 262 262 262 262 262 262 262 262 262 263 264 264 265 266 267 268 267 267 267 266 266 265 266 266 267 267 268 268 268 269 269 270 270 270 269 269 269 268 268 267 267 267 267 268 268 267 266 266 266 265 265 264 264 264 263 263 263 264 264 264 264 264 264 264 264 264 264 264 264 264 264
256 257 257 257 257 258 258 259 258 259 259 260 260 260 261 262 263 263 264 264 264 264 265 265 265 265 265 265 264 264 264 264 263 263 263 263 263 263 264 265 266 267 267 267 268 268 268 268 268 267 266 266 266 266 266 267 267 267 266 266 265 264 264 264 264 264 264 264 264 264 264 263 263 263 264 264 264 264 264 264 264 264 264 264 264
256 256 256 257 257 257 257 257 257 258 258 259 259 260 260 261 261 262 262 262 262 263 263 263 263 263 263 263 263 262 262 262 262 262 262 261 262 262 262 262 262 263 263 263 263 264 264 264 264 264 264 264 264 264 264 265 265 265 265 264 264 264 263 264 264 264 265 265 265 264 264 263 263 263 263 263 263 264 263 263 264 264 264 264 264
256 256 256 256 256 256 256 256 257 257 257 258 258 258 259 259 260 260 260 260 261 261 261 261 261 261 261 261 261 261 260 261 260 261 261 261 261 261 260 260 260 260 261 261 261 262 262 262 262 262 263 263 263 263 263 262 262 262 262 262 263 264 264 264 264 264 264 264 264 264 264 264 263 263 263 263 263 264 263 264 264 264 264 264 264
255 255 255 256 256 256 256 256 256 256 257 257 257 257 258 258 258 259 259 259 259 259 259 260 260 260 260 260 259 259 259 259 259 260 260 260 260 259 259 259 259 259 259 259 259 259 260 260 260 261 261 261 261 261 260 260 260 260 261 262 263 263 263 263 263 263 263 263 263 264 263 263 263 263 263 262 263 263 263 263 264 264 263 263 263
255 255 255 255 255 255 255 255 255 256 256 256 256 256 256 257 257 257 258 258 258 258 258 258 259 259 259 259 259 259 259 259 259 259 259 258 258 258 258 258 258 258 258 258 258 258 259 259 259 259 259 259 259 259 259 259 260 261 262 262 262 262 262 261 261 262 262 262 262 263 262 262 262 261 262 262 262 262 263 263 263 263 263 263 263
Wind_Speed
9 9 9 10 11 11 10 10 11 9 10 8 8 9 9 9 9 9 9 9 8 8 8 8 8 8 8 8 8 9 9 9 9 9 10 11 11 12 11 12 14 14 13 14 13 13 15 15 16 16 13 13 13 11 12 12 11 11 10 9 10 10 10 10 11 4 1 2 5 6 8 9 8 8 9 7 7 7 6 4 4 4 3 3 4
8 8 8 9 11 10 10 8 9 9 10 10 11 10 10 9 9 9 9 9 8 9 9 8 7 8 8 8 8 9 9 10 9 9 10 11 11 9 10 12 13 14 14 15 15 13 14 16 18 16 14 15 15 14 13 12 12 13 12 11 12 11 10 10 11 6 7 2 4 5 7 8 8 8 10 10 8 7 7 5 3 4 4 4 4
6 6 7 8 9 9 9 9 9 10 10 9 10 10 10 10 9 10 9 9 8 8 8 8 8 8 8 8 8 8 9 9 9 10 10 11 12 11 11 12 14 14 15 15 15 14 15 18 19 15 11 14 16 15 14 14 13 14 15 12 13 13 10 11 10 9 9 8 6 8 8 8 9 10 9 7 6 7 8 7 5 4 4 5 4
6 5 5 5 6 7 7 8 9 10 10 9 10 10 9 9 9 10 10 9 10 9 9 8 8 8 8 9 9 9 9 9 9 9 11 11 12 12 12 12 13 14 14 14 15 15 15 16 18 17 13 15 17 16 15 15 14 14 15 14 13 13 11 10 11 10 7 10 8 9 8 9 7 6 6 5 7 6 6 5 4 4 5 5 5
7 7 8 8 7 7 7 7 7 7 8 8 9 9 9 9 8 9 10 10 10 10 10 9 8 8 8 9 9 9 9 9 9 10 9 9 11 11 12 12 12 14 15 14 14 15 15 16 16 15 15 16 18 17 15 17 15 14 15 14 13 12 9 10 11 9 7 11 8 5 6 6 4 6 8 9 6 5 4 5 5 5 5 4 4
8 8 8 8 8 8 7 7 7 7 6 6 6 7 7 8 8 8 8 9 9 9 10 10 9 10 9 9 9 9 9 9 9 9 10 10 10 11 11 11 12 12 13 14 14 14 15 15 16 15 16 18 18 17 16 17 15 15 16 15 13 11 12 11 10 11 9 8 11 8 8 10 8 6 9 9 9 8 6 5 4 5 5 5 5
8 8 8 8 8 8 7 8 8 7 8 8 8 7 7 7 7 7 7 8 9 9 9 10 9 9 10 10 9 9 9 9 9 9 9 10 10 11 11 12 12 12 12 13 13 14 15 15 15 15 17 17 18 17 16 16 15 17 17 16 14 13 13 12 11 12 11 9 8 9 10 8 9 9 8 8 7 7 8 7 6 6 5 6 6
7 7 8 8 8 8 7 8 8 8 7 8 8 9 9 9 9 8 8 8 7 8 8 9 9 8 9 9 9 8 8 8 9 9 9 10 10 10 11 12 12 13 13 14 13 14 15 16 16 16 16 17 16 16 15 15 14 15 15 14 13 14 14 12 12 12 11 10 10 10 9 10 8 5 6 8 7 6 8 8 8 8 9 8 8
9 9 8 8 8 7 8 7 7 8 8 9 9 9 9 10 10 11 10 9 7 8 7 8 9 9 8 8 9 8 7 7 7 8 8 10 10 11 11 11 12 13 13 14 14 14 14 15 15 15 17 19 21 20 18 16 13 14 16 14 13 14 13 12 12 12 11 11 9 8 9 10 10 11 10 10 12 12 11 9 8 8 7 6 7
8 8 9 9 9 9 9 8 8 8 8 8 8 9 9 9 10 11 11 11 11 10 9 9 8 8 8 8 8 6 6 6 8 13 13 10 10 9 9 10 11 11 12 13 14 14 14 14 14 19 20 21 23 23 23 23 23 18 14 13 14 14 14 14 13 13 13 13 13 12 12 13 13 13 11 10 9 8 8 10 9 8 7 6 4
8 8 9 9 9 9 9 9 9 9 8 8 9 9 9 10 10 9 10 11 11 11 10 11 10 10 10 9 8 7 6 6 11 13 15 17 13 11 11 11 11 12 13 13 14 14 13 13 13 15 18 19 20 23 22 24 24 25 24 20 18 16 15 15 15 14 14 15 14 12 15 16 15 14 13 12 12 13 12 12 11 9 9 10 7
7 8 8 9 10 10 10 10 10 10 9 9 8 7 8 8 9 10 9 9 9 10 11 11 12 11 10 10 9 8 8 10 13 14 15 17 16 12 11 11 11 11 12 13 13 12 13 13 12 10 11 14 15 15 19 24 25 24 25 24 23 24 23 19 17 14 15 15 14 16 16 16 15 13 12 11 12 11 11 12 12 13 12 11 10
8 9 9 10 10 10 10 11 12 10 10 9 8 8 9 9 10 10 10 10 10 11 10 10 11 12 11 11 11 10 9 10 13 14 15 16 18 16 11 12 12 12 12 13 13 14 13 12 11 10 9 15 14 14 14 16 21 25 23 25 26 27 28 29 25 18 15 16 16 17 17 16 14 15 15 15 13 15 12 11 11 11 11 11 10
9 10 11 11 10 10 10 9 10 11 11 10 10 10 10 11 10 9 10 9 9 10 10 11 11 10 10 11 12 11 11 11 14 15 16 17 19 17 12 13 12 13 14 14 13 13 13 13 12 11 10 9 11 13 13 13 13 15 16 16 17 21 25 29 28 25 19 17 18 18 17 13 15 15 15 16 17 15 14 13 13 11 12 12 7
12 11 12 12 12 10 12 11 11 11 11 11 10 10 11 12 12 11 10 10 11 11 11 11 10 10 10 10 11 11 11 15 16 16 16 17 18 17 11 12 12 12 13 14 14 14 13 13 13 14 12 10 10 13 12 12 11 12 14 16 17 16 17 18 20 18 16 13 14 16 12 14 15 11 12 13 16 13 14 14 14 11 7 7 6
13 12 12 13 13 12 12 11 11 11 11 11 11 12 12 12 12 11 11 10 10 10 11 11 11 11 11 12 11 12 13 16 16 16 18 18 18 10 10 11 12 13 14 14 13 12 12 13 14 14 14 12 12 17 16 11 10 14 16 16 15 14 16 17 15 17 17 14 14 14 10 10 10 10 12 12 10 8 8 8 8 8 9 8 8
13 13 13 12 12 12 12 11 11 11 11 12 13 13 13 14 13 10 11 12 13 13 13 13 12 12 12 12 12 13 13 15 15 15 15 18 14 8 9 10 11 12 13 13 12 13 13 13 13 13 13 13 12 15 14 13 11 15 15 15 13 13 14 13 14 16 13 9 11 11 10 13 15 16 18 18 13 11 10 10 11 10 10 10 6
13 12 13 12 13 12 10 11 11 12 12 13 14 13 13 13 13 11 12 13 14 13 13 14 13 13 13 13 11 11 12 16 19 18 19 19 16 11 9 10 11 12 12 12 11 12 15 19 17 15 15 14 15 14 18 16 12 13 14 14 14 15 14 12 10 10 13 11 13 13 13 16 17 18 20 21 22 17 15 15 13 11 11 11 11
13 13 14 14 13 12 12 12 12 13 14 14 14 15 14 14 13 13 13 12 14 13 13 13 14 13 13 13 16 16 14 15 18 19 19 18 14 9 10 10 11 12 11 12 11 11 12 13 19 18 17 16 18 16 20 16 12 13 13 12 15 17 15 12 12 11 10 10 10 10 10 14 12 11 13 22 23 17 12 11 11 13 12 10 8
13 13 14 14 11 11 12 13 13 14 15 16 15 15 14 14 15 14 14 13 13 14 14 15 16 15 14 14 14 14 14 15 16 22 20 19 18 11 8 10 11 13 12 11 11 10 12 11 12 20 25 23 21 20 20 21 15 12 11 12 14 19 10 8 10 12 13 13 12 13 13 12 11 11 11 14 14 14 10 10 12 11 11 11 10
13 14 13 13 13 13 12 12 15 16 16 16 16 16 15 16 16 15 15 14 15 15 17 16 16 16 15 15 15 16 16 17 18 22 21 21 21 17 9 11 12 12 12 12 11 12 11 11 10 15 22 23 23 23 24 25 23 15 15 15 17 11 8 9 13 17 13 12 12 11 11 11 12 11 12 13 13 12 10 9 11 10 11 11 10
13 11 12 11 13 16 18 18 17 16 17 17 17 17 17 17 17 17 15 16 18 19 18 17 16 16 16 16 17 17 19 23 18 20 23 23 22 22 13 12 13 12 12 12 12 12 13 11 10 13 19 21 22 23 25 25 27 16 16 21 20 17 14 13 10 11 13 12 11 12 12 12 12 12 12 12 12 12 10 10 8 8 7 7 10
15 14 13 14 16 17 17 18 17 15 16 17 18 19 18 18 18 17 18 18 19 20 19 18 18 18 17 16 16 17 17 17 22 20 22 25 23 22 23 17 20 15 12 14 13 13 11 12 12 16 17 21 23 24 23 26 23 18 22 23 22 21 17 11 11 12 12 13 13 14 14 14 13 13 13 12 11 11 10 9 8 8 7 5 5
13 14 14 14 16 16 15 16 15 15 16 16 16 19 19 18 18 17 18 18 18 18 18 17 17 18 19 19 19 18 17 16 17 25 23 28 27 27 25 25 24 15 13 13 13 12 12 12 11 14 17 20 23 24 24 25 18 23 27 27 24 22 14 12 13 13 13 13 14 12 14 14 13 12 12 9 9 8 10 9 8 8 8 7 7
14 15 16 16 15 16 16 14 15 15 16 15 16 16 17 16 16 16 16 16 17 17 18 16 16 17 18 17 17 17 16 16 16 19 26 24 28 28 26 27 25 24 16 13 15 13 15 19 18 15 17 20 23 24 22 25 30 27 28 28 24 14 14 13 14 13 13 15 16 15 15 13 11 10 9 10 11 10 9 7 7 7 7 7 6
16 17 16 16 15 16 17 18 15 14 15 13 14 14 15 15 15 15 15 16 16 17 17 17 16 16 19 18 18 19 18 17 19 19 18 21 19 24 27 24 23 24 22 16 19 22 22 25 25 25 19 18 15 13 12 13 21 28 28 26 16 13 13 12 13 15 15 14 14 14 12 9 9 10 11 11 11 11 10 10 10 8 8 8 8
18 17 16 16 16 15 17 14 14 14 13 12 12 12 12 13 14 15 14 15 15 16 17 18 18 18 18 17 17 17 18 17 17 16 15 15 15 15 15 16 20 20 16 14 17 17 19 20 13 14 14 18 19 16 15 14 13 15 15 14 13 12 12 12 14 14 14 12 12 12 10 10 9 11 12 12 11 8 10 10 10 8 8 8 7
17 17 18 16 15 15 15 19 18 14 13 12 13 12 12 13 14 15 14 14 15 17 17 17 17 17 16 15 15 15 16 15 15 15 14 14 12 11 10 11 11 10 11 12 12 12 10 11 15 12 11 11 13 11 11 11 11 11 11 12 12 11 13 16 15 13 13 13 11 10 10 11 12 12 10 10 10 9 9 10 10 9 8 9 6
18 20 17 16 16 14 14 14 13 14 14 13 13 13 12 13 14 15 15 13 16 17 17 19 18 16 17 18 19 19 18 17 16 17 19 20 15 9 6 7 7 8 11 15 11 8 7 9 9 9 10 11 11 11 11 10 10 11 11 11 10 10 9 10 13 14 12 11 12 12 11 11 11 10 11 10 9 9 9 8 8 9 8 5 4
18 17 16 15 15 15 14 14 14 14 14 15 15 14 17 24 20 17 18 23 30 32 28 22 19 17 18 18 16 18 17 17 24 31 31 30 29 28 23 22 18 13 14 20 14 9 10 10 11 11 10 11 10 11 12 12 12 10 10 11 10 9 10 11 11 12 11 12 11 11 11 11 11 11 11 10 8 8 9 10 9 8 8 7 6
16 16 16 15 16 15 15 15 14 14 15 15 15 16 15 14 23 29 29 29 30 32 32 35 37 34 26 22 22 35 39 41 40 38 37 35 34 34 32 31 31 31 28 16 11 12 11 12 11 10 11 11 9 12 11 11 12 11 10 10 10 10 10 10 11 10 10 11 10 10 11 11 12 11 12 11 11 9 8 5 5 5 5 7 6
18 17 16 16 17 16 15 16 16 15 15 14 15 15 16 16 15 20 26 28 29 30 30 32 33 32 34 32 26 19 28 34 36 36 37 37 37 37 37 36 36 35 32 29 15 12 12 12 9 9 9 10 10 13 11 11 11 11 10 10 11 10 11 11 11 11 11 10 11 11 11 11 11 11 10 11 11 10 9 8 7 7 6 6 6
19 19 18 18 16 18 16 15 15 15 15 15 15 15 15 15 17 16 14 22 27 28 29 31 32 32 33 34 35 33 30 30 35 35 35 35 35 34 34 35 34 32 32 22 16 14 13 12 9 10 11 12 12 12 12 11 10 11 11 11 11 10 10 11 12 12 12 11 11 11 11 11 11 11 10 11 12 11 8 9 7 7 7 7 7
16 17 16 17 17 16 15 15 15 15 14 15 15 15 15 16 15 16 17 15 15 18 23 26 28 29 30 31 31 31 31 32 31 32 32 32 33 33 33 27 31 33 28 19 16 15 13 12 12 11 12 12 10 10 11 10 10 10 10 9 9 9 10 10 11 12 11 11 11 10 11 10 11 12 11 9 6 8 8 8 8 8 9 8 8
15 19 26 22 16 15 15 14 15 15 15 14 14 15 15 15 16 16 15 16 16 17 15 15 20 25 22 22 26 30 30 30 31 31 32 31 31 31 30 21 20 18 18 18 17 15 14 13 13 13 10 12 11 10 11 11 10 10 10 9 8 9 9 10 11 10 11 11 11 11 11 11 11 11 12 13 12 10 8 9 8 9 9 9 8
15 14 15 16 15 14 14 14 14 14 15 15 15 15 15 16 16 16 15 16 17 16 15 14 13 18 29 28 30 29 29 29 29 29 29 30 29 29 19 15 15 16 16 15 15 15 13 12 11 11 11 11 10 9 8 9 9 9 8 9 10 10 10 10 11 11 10 11 11 12 11 10 10 11 10 11 12 12 10 9 9 8 8 8 8
14 14 14 14 14 14 14 15 14 15 16 16 15 15 15 15 15 15 16 15 15 15 16 14 13 12 16 15 19 24 28 27 26 27 28 28 29 19 14 15 14 14 15 15 14 13 12 11 9 10 10 10 10 9 8 8 7 7 7 9 9 11 11 11 12 12 12 11 10 10 12 11 11 11 13 12 9 9 9 9 8 8 7 9 9
14 14 13 14 14 15 15 15 16 20 16 15 15 15 15 15 15 15 15 15 16 15 14 14 15 14 14 14 17 14 16 22 27 24 21 20 16 12 13 15 15 14 14 15 14 13 11 9 8 8 8 8 9 8 8 7 7 8 8 8 8 8 13 12 13 12 11 10 10 11 10 10 10 11 10 7 8 6 7 8 9 9 8 9 7
12 18 22 25 21 15 14 14 15 14 14 14 14 14 15 14 14 13 14 13 12 12 13 12 12 13 13 12 13 14 16 13 12 11 12 12 12 12 13 13 13 13 13 14 14 12 9 8 6 6 7 8 9 9 8 8 8 8 8 9 8 8 10 8 9 9 9 10 10 10 11 11 11 12 12 11 7 8 9 8 8 8 8 8 7
14 13 15 22 16 16 14 14 14 14 14 13 13 13 14 13 13 13 13 13 13 13 13 14 14 14 13 13 12 12 13 14 12 12 11 12 12 12 10 9 9 11 12 12 13 12 10 8 6 6 7 8 8 8 8 9 9 9 9 10 10 10 9 9 10 11 11 11 11 11 11 12 12 11 10 10 10 10 10 9 8 8 7 7 7
12 13 14 16 17 15 14 14 13 13 13 13 12 13 13 13 13 13 12 13 13 13 13 13 13 13 14 18 27 26 16 15 15 15 14 13 12 12 10 8 8 9 11 11 11 9 8 6 6 6 6 7 7 8 8 9 9 10 10 9 9 9 9 9 10 10 11 11 11 11 11 13 13 11 9 9 11 9 8 8 8 7 7 7 7
13 13 13 13 14 13 13 13 13 15 13 13 12 12 12 12 12 11 13 12 13 13 13 12 12 12 17 29 27 29 18 13 13 14 13 11 9 9 9 8 8 11 12 10 8 6 5 6 6 7 7 7 8 8 9 9 10 10 10 10 10 10 10 10 9 10 11 11 11 13 14 14 13 11 12 11 8 8 8 7 7 7 7 7 7
13 13 13 13 13 13 13 13 13 13 13 13 11 11 12 12 12 12 12 12 12 13 12 12 12 11 13 21 22 24 13 12 12 13 12 11 10 10 10 10 7 7 7 3 5 6 7 7 7 7 8 9 10 10 10 11 10 10 10 10 10 10 10 10 9 10 10 10 12 14 15 13 12 10 9 9 8 8 7 7 7 6 6 6 6
12 12 12 13 13 13 13 12 13 13 13 14 13 12 12 11 11 11 11 11 10 11 11 11 11 11 12 14 14 12 10 10 11 11 9 9 10 10 7 3 2 3 4 5 5 7 9 8 8 6 6 7 8 10 10 10 11 11 11 11 10 10 10 11 11 11 12 12 12 13 11 11 11 10 9 9 9 9 7 7 6 6 6 5 6
10 11 12 12 12 12 12 12 12 13 14 13 11 10 9 9 10 11 11 11 11 10 10 11 11 11 11 11 11 11 10 9 8 7 7 7 7 7 7 6 4 4 4 5 4 6 8 8 8 9 8 7 7 7 7 7 7 8 9 12 12 12 11 12 12 12 13 15 12 8 12 11 11 10 9 8 8 8 8 7 7 7 6 6 6
10 10 11 11 12 12 12 12 13 12 12 12 12 11 11 10 9 9 11 11 11 11 10 10 11 11 11 11 9 9 9 8 7 6 6 6 7 7 7 7 6 5 5 4 5 6 6 6 7 7 8 7 7 6 6 7 7 7 7 7 8 7 7 8 10 12 13 15 15 12 13 12 10 9 9 9 7 7 7 7 6 6 6 6 6
10 10 11 11 11 12 12 12 12 12 12 12 11 12 11 11 11 11 11 11 12 12 11 10 9 9 9 8 8 8 8 8 7 7 7 7 7 8 8 8 8 7 7 7 7 6 7 6 6 6 7 7 7 8 8 7 7 7 7 7 7 9 9 9 10 12 13 14 14 14 13 12 11 10 10 9 7 7 6 6 6 7 6 5 5
9 10 10 10 10 10 11 11 12 14 12 12 12 12 12 11 11 11 10 10 10 10 10 9 9 9 9 8 8 8 7 7 7 7 7 7 7 7 8 8 8 8 7 8 8 8 8 7 7 7 8 8 8 8 7 7 7 7 7 7 7 9 13 14 11 12 11 11 11 12 12 11 10 9 8 8 7 7 7 6 5 4 5 5 5
9 9 10 10 10 10 10 11 12 11 11 12 12 12 12 11 11 10 10 10 10 10 10 10 9 9 8 8 8 8 8 8 7 7 7 7 7 7 7 7 8 7 8 8 7 8 8 8 8 8 8 8 8 8 8 8 8 7 8 7 12 22 23 19 12 11 13 12 10 10 10 10 10 9 8 7 7 6 5 5 5 5 5 5 4
9 9 9 10 10 9 10 10 10 10 11 11 11 11 11 11 11 11 11 10 10 10 10 10 9 9 8 8 9 8 7 7 7 7 7 7 7 7 7 7 7 8 7 7 8 8 8 8 8 8 8 8 9 8 8 9 9 9 9 12 22 22 21 18 16 14 11 9 10 9 10 10 9 8 7 6 6 6 5 5 4 4 4 4 3
9 10 9 9 9 9 9 10 10 10 10 10 10 11 11 11 11 11 10 11 10 10 10 10 9 9 9 8 8 7 7 7 7 7 8 7 7 6 7 7 7 7 8 8 8 8 8 8 8 9 9 9 9 9 9 8 8 10 15 21 22 20 16 13 12 13 14 9 9 9 9 9 9 8 7 6 5 5 6 5 5 4 3 4 4
Wind_Direction
10 9 7 11 14 13 8 6 4 0 356 357 354 348 347 341 337 329 320 311 308 300 291 282 275 264 249 237 232 232 232 233 227 227 227 230 229 229 229 225 230 234 233 231 227 228 230 231 231 229 224 225 229 223 221 216 213 219 218 217 222 217 211 219 229 198 346 96 150 153 156 153 169 173 167 161 156 176 177 162 172 172 177 210 221
9 3 2 3 9 8 5 3 359 354 355 353 357 354 351 348 342 333 326 317 316 308 301 292 285 278 266 256 246 236 234 233 231 227 226 229 231 227 229 225 225 230 231 235 229 226 228 231 233 229 222 225 228 226 222 217 213 215 216 214 219 218 208 212 224 195 174 148 135 126 149 169 174 174 177 174 166 165 175 169 177 173 189 194 218
0 356 353 360 4 1 359 360 356 356 358 354 352 349 349 348 346 340 333 324 316 309 302 299 289 282 274 269 259 249 240 236 229 228 230 231 232 230 227 228 227 226 225 229 229 226 228 231 233 229 223 226 228 228 223 220 216 216 218 213 219 219 209 210 210 216 169 183 161 158 167 177 185 180 181 175 159 158 168 181 180 183 187 201 205
349 344 348 352 350 359 2 356 354 353 354 349 346 341 339 341 341 341 337 330 328 319 310 301 294 283 279 271 261 256 251 245 242 234 232 232 235 235 230 226 228 232 231 227 225 227 229 232 234 229 223 228 230 227 224 220 217 217 219 216 218 217 209 207 211 215 167 166 183 174 176 168 183 163 162 152 157 161 169 165 167 183 189 197 206
350 346 347 349 350 358 354 352 351 350 348 343 343 340 338 335 333 336 336 332 328 325 320 316 306 296 287 282 276 267 260 255 252 249 242 235 237 239 238 234 231 233 234 233 228 224 227 231 234 228 223 228 233 228 224 219 219 217 218 217 214 213 206 205 210 204 172 181 161 164 157 162 157 153 163 162 154 150 156 174 183 188 200 197 190
351 346 347 347 342 346 345 344 345 339 333 332 329 330 332 331 329 327 327 327 325 326 323 322 316 308 301 291 283 277 270 265 261 258 253 247 243 240 240 240 240 237 236 235 234 230 229 226 229 228 226 228 233 231 227 223 221 220 221 219 213 207 206 207 202 205 200 185 166 154 168 165 165 173 173 166 161 157 169 180 188 201 194 199 202
344 340 337 340 335 339 342 339 336 333 333 332 328 326 330 329 326 326 321 319 320 322 323 318 314 309 303 299 290 284 280 274 270 265 261 255 249 245 243 243 243 242 241 240 237 237 235 233 230 226 227 231 235 233 229 227 223 223 221 219 213 207 207 203 198 199 204 183 181 172 162 174 173 163 167 167 171 173 169 167 199 203 202 200 203
331 330 327 326 326 326 333 329 330 329 330 330 329 330 331 330 329 328 323 314 309 311 313 315 312 305 299 295 290 284 277 275 271 267 263 259 256 252 249 247 246 244 245 243 240 236 237 239 238 233 228 228 230 231 225 226 223 226 224 219 214 208 207 201 196 198 200 195 182 174 169 161 163 144 136 155 168 190 195 186 186 184 196 199 202
333 330 329 325 323 322 319 318 310 315 323 325 325 328 328 326 324 323 322 317 313 311 301 298 297 298 299 297 297 292 286 279 274 270 269 264 258 258 256 253 250 251 249 248 242 240 239 240 241 239 234 232 227 224 222 220 221 226 225 216 214 208 209 204 201 198 201 197 188 174 166 170 175 162 164 176 189 189 181 185 203 195 183 188 200
321 323 322 322 322 322 318 312 308 307 311 307 310 313 317 320 320 319 316 314 315 313 313 309 301 296 298 299 296 293 285 280 271 265 262 265 267 264 260 255 253 253 253 252 249 244 240 241 241 236 232 230 231 230 227 224 223 223 222 210 209 209 208 206 205 204 200 199 199 181 181 191 183 182 174 186 176 165 167 182 190 183 163 183 185
314 316 315 313 313 312 311 309 308 303 295 298 300 301 302 305 304 305 309 309 310 311 312 313 311 311 309 304 299 293 284 277 274 273 271 267 264 264 263 262 256 254 254 252 253 250 247 242 242 236 232 230 231 230 228 226 224 224 223 217 211 206 205 208 211 203 201 206 202 191 197 194 191 185 182 172 179 183 181 184 184 175 178 173 191
298 297 301 305 306 308 305 304 302 297 294 291 289 290 292 293 293 296 301 300 301 303 305 303 308 309 307 305 301 297 296 290 286 285 280 275 269 265 263 262 260 257 256 257 256 255 252 249 244 238 231 229 228 227 228 227 225 224 223 220 219 216 212 207 206 204 205 209 204 205 202 202 190 180 184 173 178 180 184 180 184 187 186 197 200
296 297 297 297 296 296 299 302 302 300 296 291 289 292 290 288 289 289 290 292 293 290 285 291 296 298 302 302 301 297 290 287 288 288 287 284 279 270 264 259 258 257 255 255 257 259 259 255 253 242 238 225 220 223 226 227 226 224 223 223 222 219 220 220 215 209 201 207 209 213 208 201 188 195 186 180 174 183 177 178 186 190 194 196 197
294 292 292 290 286 287 290 290 290 292 294 294 294 294 297 295 291 289 288 287 284 284 285 285 285 285 287 290 291 292 288 286 286 285 283 282 282 277 265 263 258 254 255 254 255 255 255 258 259 254 246 229 220 220 222 223 218 218 221 222 225 224 222 222 223 220 213 212 212 216 213 195 202 196 183 178 176 183 178 188 184 184 191 197 175
289 282 280 282 284 285 283 282 283 286 287 287 287 289 292 295 292 291 289 286 284 281 279 280 280 281 283 282 279 279 279 279 281 278 274 273 277 279 270 266 262 256 253 251 251 254 256 258 257 259 255 238 223 219 219 214 210 212 215 219 222 221 218 218 220 220 218 219 226 228 215 200 210 197 180 184 187 187 188 186 179 177 148 95 83
286 285 284 285 284 283 284 286 285 288 289 287 285 289 292 290 290 291 289 287 284 284 279 275 274 274 277 280 279 276 275 273 272 274 277 274 274 273 270 265 263 259 257 253 249 249 251 250 254 255 255 252 229 215 216 207 202 210 217 220 222 221 222 219 215 213 216 215 219 221 218 200 190 176 172 172 168 150 120 109 112 134 145 155 172
292 290 291 292 292 292 289 286 284 286 289 289 286 288 291 290 287 286 284 283 285 284 283 281 278 275 274 271 271 273 277 279 273 269 273 275 273 267 266 265 263 261 258 256 252 250 247 244 245 250 250 250 236 226 209 183 206 210 218 219 220 221 227 220 206 207 209 187 195 206 199 189 182 173 171 168 164 152 139 143 169 159 156 173 176
295 298 297 297 297 296 295 296 294 291 289 285 284 286 287 287 284 284 282 283 282 280 281 282 277 273 270 268 262 267 274 277 277 274 273 271 266 265 264 263 262 262 263 257 254 250 245 240 238 242 246 245 244 226 209 200 211 212 216 216 220 224 225 214 205 204 191 171 176 177 180 182 181 177 174 170 165 161 165 181 172 156 181 184 178
303 304 303 302 300 299 300 299 297 296 294 292 291 289 287 285 283 282 280 279 276 278 277 274 274 272 271 270 271 269 270 271 271 268 265 266 261 253 259 261 260 260 260 260 254 250 251 244 237 236 240 242 239 228 216 202 215 216 217 214 221 226 220 195 191 194 190 193 195 177 182 180 180 175 179 175 170 172 182 172 159 172 177 175 165
305 306 304 301 301 302 302 302 302 303 300 297 296 292 290 286 282 282 280 277 277 276 276 274 272 272 273 272 271 269 270 270 267 266 261 261 257 250 248 257 258 260 257 258 260 254 253 254 237 235 237 237 231 220 217 209 209 216 215 220 222 228 207 184 189 197 200 198 196 193 192 185 180 178 178 178 177 178 173 166 171 173 174 170 174
308 307 305 304 305 307 309 308 304 300 296 294 294 291 287 285 284 282 280 278 276 274 273 274 272 272 272 272 273 271 267 266 265 261 257 253 253 250 244 245 252 256 259 256 255 258 255 246 241 235 231 231 230 223 217 217 213 211 214 222 223 225 170 179 198 190 196 199 197 196 193 191 190 188 185 181 180 179 173 167 173 178 174 171 172
309 308 306 309 308 304 300 298 295 294 294 294 291 288 286 285 283 283 281 279 277 276 275 273 273 272 272 272 271 269 267 263 263 262 256 252 249 246 242 244 243 252 255 257 255 254 251 248 243 235 228 225 229 224 220 219 218 212 214 218 219 206 184 198 190 190 197 196 192 194 193 194 192 192 189 183 179 176 171 168 161 159 171 174 174
301 299 299 299 299 300 300 300 300 301 297 294 293 291 290 287 285 283 280 277 274 273 271 269 269 269 268 267 267 267 266 265 259 258 255 250 243 242 241 241 244 242 246 254 254 255 254 251 246 237 226 218 222 224 222 219 218 219 217 216 213 205 194 195 192 197 198 196 192 197 197 195 192 191 188 185 178 167 162 155 141 139 144 126 108
304 302 302 301 300 299 300 299 297 295 294 294 291 286 283 283 282 279 278 277 276 273 270 269 269 268 266 267 267 264 263 264 263 262 259 256 249 245 242 239 239 236 234 247 252 253 255 250 247 239 226 216 216 219 225 226 223 223 227 224 217 211 200 197 196 200 195 194 196 192 192 193 190 189 187 172 153 144 150 140 137 133 132 127 125
307 302 301 300 299 295 296 292 293 292 289 286 284 282 281 280 280 276 274 272 271 270 269 268 266 266 267 266 269 269 265 264 266 269 267 259 254 245 238 239 239 238 239 241 245 248 250 255 255 235 215 213 214 217 222 229 229 229 228 227 222 210 206 199 200 196 198 199 200 196 194 192 184 171 146 140 138 124 130 129 123 119 118 110 109
300 297 297 294 292 294 293 291 286 282 281 281 279 280 283 285 283 281 279 275 274 272 271 269 265 265 267 271 269 268 272 274 272 266 262 263 257 249 241 237 238 239 236 238 243 244 247 253 253 251 222 210 212 214 218 221 227 230 230 228 220 211 205 200 197 197 202 200 195 192 189 172 169 166 153 149 152 164 151 143 139 135 135 132 110
298 296 295 296 294 294 291 289 290 288 284 280 278 280 283 283 283 282 281 280 277 273 271 271 271 269 268 270 271 270 268 268 266 264 260 259 259 255 244 244 241 239 239 242 244 248 248 249 248 235 226 218 211 212 214 215 216 221 224 224 223 213 205 197 197 199 200 192 191 187 178 169 155 150 166 168 161 158 158 149 146 145 140 148 132
296 296 297 296 293 292 288 288 288 287 285 281 279 278 274 273 275 275 279 281 283 281 279 277 275 275 276 274 273 272 273 272 266 264 264 261 261 257 245 236 232 230 235 236 238 239 237 243 245 239 219 213 214 211 214 211 208 211 213 215 216 212 206 202 197 197 198 194 186 173 166 167 169 170 160 164 163 159 157 154 152 147 145 144 127
296 295 295 294 291 289 288 289 288 286 285 282 274 273 277 277 274 273 267 270 272 275 278 275 273 275 276 275 277 276 273 269 269 279 279 276 273 273 256 242 237 244 239 239 241 236 236 238 234 224 213 208 208 209 205 203 205 205 207 210 212 204 194 189 193 196 193 183 185 179 173 166 168 162 162 160 162 158 156 140 142 136 140 140 134
297 297 296 293 292 293 292 290 289 287 285 284 282 277 267 269 270 271 275 270 270 270 270 271 272 273 274 271 271 273 275 275 279 277 275 276 277 275 277 281 278 260 243 245 239 238 235 233 231 221 211 208 202 203 205 199 201 199 203 203 203 197 189 193 192 189 181 186 180 170 168 166 161 161 162 160 144 148 156 151 149 144 141 156 148
299 297 295 293 293 293 292 289 287 285 283 282 282 283 285 275 270 273 275 277 277 277 276 275 276 274 273 274 270 269 270 273 273 274 274 274 273 274 275 276 277 281 275 262 246 239 237 234 228 213 209 210 196 205 203 201 198 199 197 196 201 194 186 187 188 182 177 176 170 163 161 163 166 164 164 160 154 149 148 126 115 135 140 147 147
297 296 294 292 291 289 287 286 285 283 282 281 281 283 284 286 282 273 275 279 280 281 282 281 280 278 277 276 278 276 274 275 275 273 271 270 270 272 272 272 271 268 266 267 257 238 235 234 214 205 200 206 205 206 203 202 199 197 195 193 197 192 183 186 179 172 172 168 164 166 167 170 169 166 160 156 155 155 148 149 149 151 151 152 155
292 292 290 290 288 287 286 284 283 283 283 282 281 281 281 283 286 289 280 279 281 283 285 284 284 283 281 280 279 279 279 278 276 276 274 273 270 266 264 265 263 261 263 258 249 241 231 232 215 209 210 212 213 208 205 204 202 199 197 197 193 184 182 176 164 169 172 168 164 168 172 171 165 160 159 157 160 158 145 151 151 146 152 148 155
285 287 287 287 287 285 283 282 281 281 279 280 280 280 280 279 282 286 290 291 287 282 281 282 284 285 285 284 285 285 285 283 283 283 281 277 271 267 267 266 263 259 254 250 241 232 230 220 220 217 216 212 210 205 205 204 201 200 197 194 182 167 166 160 167 169 162 161 166 169 167 168 163 162 161 154 137 140 143 152 150 153 161 162 159
284 284 284 285 284 284 282 281 282 281 282 281 282 282 280 281 281 283 285 287 288 289 290 288 285 285 284 284 283 283 283 285 287 287 285 283 281 280 273 262 259 253 247 244 240 228 224 222 221 221 209 207 207 203 203 202 197 195 191 177 161 157 156 161 166 163 157 160 163 170 169 164 165 164 160 159 155 154 147 150 155 159 156 154 155
289 288 290 287 285 283 282 284 283 283 283 281 281 280 281 281 280 281 283 284 284 286 286 284 284 287 286 285 285 286 287 287 286 285 284 283 281 276 271 261 247 246 247 241 233 228 222 221 216 217 209 210 207 205 203 201 196 191 179 166 164 157 155 157 159 159 162 162 166 165 161 160 161 158 156 156 155 154 152 151 151 152 150 151 156
294 292 289 287 285 284 284 282 280 280 280 282 282 282 282 281 281 283 282 282 285 288 290 291 289 286 287 285 285 289 290 290 291 294 293 289 280 270 258 265 260 249 243 242 233 221 221 217 210 212 209 208 203 199 194 193 185 173 164 166 161 159 164 164 163 160 160 161 158 158 158 159 159 163 159 151 145 146 146 146 141 144 144 149 147
294 292 290 290 290 289 287 285 284 285 284 284 283 283 283 283 283 282 283 285 285 287 291 293 293 291 293 292 291 287 287 287 289 290 291 290 282 257 249 251 255 248 244 242 233 220 218 218 206 204 202 196 197 187 185 182 169 161 159 158 158 160 158 157 162 157 156 151 153 153 151 152 157 156 147 122 135 129 141 145 147 151 151 156 151
299 296 295 294 294 292 289 288 288 288 286 285 283 283 282 283 283 283 284 284 285 284 286 288 288 289 288 292 296 297 294 290 284 279 282 285 285 272 255 240 240 248 247 248 236 224 204 195 183 184 190 192 193 184 175 164 153 156 151 145 142 146 155 152 153 151 149 151 151 152 151 154 151 150 148 143 131 139 146 142 147 148 148 155 157
300 299 295 297 296 293 291 289 288 286 283 282 282 280 282 281 281 284 285 287 287 289 289 288 288 287 288 291 294 297 297 298 299 294 290 290 291 292 287 273 257 248 251 250 238 219 206 189 172 170 182 191 188 175 163 150 152 150 147 149 150 158 161 159 156 156 158 154 151 152 152 150 147 143 142 145 144 145 144 149 152 150 146 149 151
299 298 299 300 297 297 294 293 291 288 284 281 282 285 284 284 286 287 288 287 287 289 289 288 286 285 284 284 286 290 296 301 302 300 295 292 293 293 286 284 289 283 270 250 228 208 196 174 161 164 160 167 165 152 145 144 143 146 148 147 149 154 157 159 158 157 155 152 152 152 150 142 128 134 123 141 150 143 138 141 141 142 144 143 152
304 304 303 302 303 303 302 302 299 298 293 285 283 284 287 289 290 289 288 286 286 286 287 286 285 285 286 288 288 290 292 291 291 292 290 290 295 303 300 294 291 289 272 237 205 179 144 122 126 128 137 141 138 140 137 142 144 143 147 152 155 153 154 159 158 155 153 153 151 151 145 135 141 141 141 141 138 139 139 140 141 144 145 152 151
307 305 304 304 306 306 306 303 304 304 305 299 289 290 291 290 289 288 286 285 284 284 286 285 285 286 284 284 287 292 292 284 283 288 292 305 309 304 297 293 297 309 294 214 148 119 110 117 122 129 140 147 148 148 147 146 150 152 153 155 154 154 154 154 151 152 150 148 148 144 139 142 140 136 136 129 134 135 137 139 141 144 148 152 155
311 310 308 308 307 306 306 308 310 310 308 304 298 294 291 289 286 285 283 282 280 282 282 282 281 284 286 291 292 290 280 284 289 290 302 316 315 311 307 311 343 352 27 36 71 97 110 108 109 102 109 124 136 146 153 159 157 155 153 151 151 152 154 155 156 155 151 148 146 142 136 134 134 133 132 137 136 137 137 137 140 142 147 151 158
315 315 314 313 313 313 312 312 313 313 313 312 307 297 292 293 289 287 286 282 283 282 281 278 279 277 279 285 289 287 285 285 292 317 327 322 322 332 331 338 3 21 36 49 57 89 104 112 119 125 132 134 133 130 124 132 140 149 156 152 151 156 162 164 163 157 151 148 142 122 133 134 134 133 133 134 137 135 136 142 146 150 152 159 167
318 318 315 315 316 315 316 317 318 316 317 318 317 315 305 296 291 289 287 286 286 284 281 281 283 285 288 294 305 320 330 332 339 341 340 344 342 345 346 342 354 18 26 39 53 63 84 100 119 129 131 126 121 109 107 114 117 121 122 127 138 144 147 146 144 145 148 145 140 134 136 133 130 130 129 133 134 138 139 145 147 152 158 163 165
321 318 319 317 318 318 319 320 320 321 321 320 321 320 323 323 318 312 309 312 311 306 308 312 321 330 337 338 336 335 338 343 347 344 346 352 355 353 349 349 359 15 25 30 31 40 55 66 75 86 94 100 100 104 111 113 110 114 114 111 111 119 128 138 145 147 144 140 137 135 132 128 127 128 125 127 130 136 139 146 150 158 157 163 165
321 320 319 320 320 321 322 323 323 324 323 323 323 324 324 326 325 328 331 330 330 331 330 330 331 334 335 340 344 344 344 343 346 347 351 355 3 2 360 2 8 13 23 30 33 39 49 55 60 68 77 86 91 93 93 97 94 101 100 109 113 123 128 131 133 133 133 129 131 128 127 126 126 124 126 130 134 139 140 147 149 155 165 167 176
326 326 324 325 326 326 325 326 326 325 324 325 324 325 328 328 331 333 335 335 334 336 335 335 336 336 340 345 347 349 349 349 349 352 353 359 4 14 13 14 21 24 37 41 34 43 53 58 64 67 73 80 82 88 90 92 95 91 100 100 127 133 135 131 130 134 131 129 126 124 121 121 123 123 123 124 131 135 140 148 157 164 171 173 174
327 327 324 324 325 326 325 324 324 324 327 327 327 328 329 330 333 335 336 336 338 340 341 340 340 341 343 347 351 351 352 350 351 350 356 2 13 18 22 22 23 32 40 42 47 54 55 58 61 67 74 78 79 82 86 89 93 98 97 114 122 122 124 109 100 104 106 116 118 119 120 118 117 119 121 125 128 137 143 156 158 160 161 169 178
326 325 324 326 327 328 330 329 329 331 331 330 331 332 333 334 335 334 338 339 339 341 342 343 343 345 349 351 353 352 352 353 357 5 8 10 12 18 29 40 40 39 46 48 52 53 60 66 71 71 75 77 81 88 89 87 85 95 108 111 113 111 98 95 102 101 102 99 106 110 117 119 122 119 125 127 138 143 161 157 158 162 171 174 186